Location: Hyderabad
(17.3833°N, 78.4667°E)
Time: 09:28:01
(UTC+05:30)

Daily predictions for brighter satellites

Satellite Brightness Start Highest point End
(mag) Time Altitude Azimuth Time Altitude Azimuth Time Altitude Azimuth
YAOGAN 1 3.3 17:55:10 10° SE 17:58:59 31° ENE 18:02:47 10° NNE
Cosmos 1464 Rocket 4.1 17:53:18 10° SSE 17:59:14 55° E 18:05:11 10° NNE
Cosmos 1782 Rocket 4.4 18:01:44 10° NNE 18:05:29 28° E 18:09:15 10° SE
USA 234 4.1 18:01:09 10° NNE 18:07:22 49° NW 18:13:35 10° WSW
COSMO-SKYMED 1 2.6 18:07:14 10° N 18:11:34 89° WNW 18:15:54 10° SSW
Cosmos 972 4.4 18:08:24 10° N 18:13:11 58° ENE 18:18:05 10° SSE
Cosmos 2221 Rocket 3.8 18:13:32 10° S 18:17:57 76° W 18:22:20 10° N
Cosmos 1633 2.6 18:19:08 10° N 18:22:44 55° E 18:26:19 10° SSE
Aurora 2 Rocket 3.0 18:16:55 10° WNW 18:23:33 87° NNE 18:28:00 10° ESE
GPS 2-14 Rocket1 2.9 18:20:01 10° W 18:24:07 63° N 18:27:07 17° ENE
Delta 168 4.1 18:19:46 10° W 18:24:09 46° N 18:29:25 15° ENE
GPS 2-18 Rocket1 3.1 18:20:23 10° WNW 18:24:23 84° N 18:27:42 14° E
BREEZE M DEB (TANK) 1.6 18:22:51 10° NNW 18:25:01 52° NE 18:28:24 10° SE
Cosmos 2084 Rocket 4.4 18:21:28 10° S 18:25:32 32° ESE 18:28:21 16° ENE
Cosmos 1763 Rocket 3.6 18:21:23 10° NNW 18:26:31 78° WSW 18:31:34 10° S
Thor Agena Rocket 4.1 18:23:41 10° NE 18:28:23 36° E 18:33:07 10° SSE
METEOR-M 4.1 18:24:37 10° SSE 18:29:53 64° ENE 18:35:09 10° N
ERBS 2.2 18:32:06 10° NNW 18:35:28 61° ENE 18:38:51 10° SE
Cosmos 968 Rocket 3.7 18:36:44 10° SSW 18:41:50 73° WNW 18:47:00 10° N
USA 229 DEB 3.6 18:36:37 10° SSW 18:43:19 89° ESE 18:50:07 10° NNE
USA 229 3.6 18:36:43 10° SSW 18:43:26 88° ESE 18:50:13 10° NNE
Cosmos 2082 Rocket 2.6 18:39:52 10° N 18:45:07 39° ENE 18:50:19 10° SE
Okean 3 4.4 18:43:10 10° SSE 18:46:21 26° E 18:46:21 26° E
NOSS 3-1 (A) 4.4 18:43:27 10° SSE 18:47:35 22° ESE 18:48:08 21° E
Okean 2 Rocket 3.0 18:44:43 10° N 18:49:12 66° E 18:53:39 10° SSE
Cosmos 540 Rocket 3.4 18:46:22 10° N 18:51:26 58° ENE 18:56:28 10° SSE
Delta 7925 Rocket 3.9 18:45:49 10° WSW 18:51:28 86° NNW 18:55:29 27° ENE
CZ-4 R/B 4.0 18:52:53 10° SSW 18:55:56 22° W 18:58:59 10° NW
Cosmos 1674 Rocket 3.5 18:52:29 10° S 18:56:49 59° E 18:59:01 27° NNE
Cosmos 1812 4.2 18:57:40 10° SSE 18:59:23 22° SE 18:59:23 22° SE
ALOS 2.2 18:59:34 10° S 19:04:14 87° W 19:08:54 10° NNW
Cosmos 836 Rocket 4.4 19:00:19 10° NNW 19:05:35 82° ENE 19:10:52 10° SSE
FENGYUN 3A 3.7 19:05:58 10° S 19:11:23 82° W 19:16:47 10° NNW
Cosmos 1634 Rocket 3.9 19:06:49 10° S 19:12:52 63° E 19:16:26 26° NNE
ISS -2.1 19:10:14 10° WSW 19:13:02 26° NW 19:13:29 25° NW
Cosmos 1378 Rocket 4.4 19:12:31 10° S 19:15:15 35° SSE 19:15:15 35° SSE
SEDSat Delta rocket 3.4 19:12:47 10° W 19:16:45 43° NNW 19:16:54 43° NNW
Cosmos 405 3.4 19:16:26 43° NW 19:17:23 63° W 19:20:54 10° S
IUS-9 SRM-1 3.9 18:57:56 10° WNW 19:19:48 53° N 19:21:20 43° NE
SPOT 3 Rocket 4.4 19:17:24 10° S 19:22:25 50° WSW 19:27:27 10° NNW
GPS 2-12 Rocket1 3.1 19:18:04 10° WNW 19:22:46 69° N 19:22:46 69° N
Nadezhda 4 Rocket 3.8 19:18:58 10° N 19:25:06 88° E 19:31:13 10° S
Cosmos 2369 Rocket 2.3 19:22:20 10° SSW 19:27:57 71° WNW 19:30:14 37° N
Delta 142 3.9 19:26:08 10° WSW 19:30:41 62° SSW 19:30:41 62° SSW
MOS 1-B Rocket 4.3 19:28:19 10° SSE 19:34:48 65° ENE 19:42:26 10° N
Cosmos 1833 Rocket 3.4 19:34:09 10° NNW 19:39:35 53° WSW 19:45:02 10° S
Cosmos 1092 Rocket 3.8 19:42:37 83° ENE 19:42:45 84° E 19:48:58 10° S
ATLAS 2AS CENTAUR RB 3.0 19:38:46 10° W 19:45:08 32° SSW 19:45:08 32° SSW
Palapa 6 Rocket 4.0 19:48:43 10° WSW 19:54:09 76° WSW 19:54:09 76° WSW
Cosmos 1943 Rocket 2.7 19:52:26 10° SSW 19:57:04 55° WSW 19:57:04 55° WSW
